Weather in Omutninsk

Russia / Kirov Oblast     58°39′50″N   52°10′37″E
temp.,
°C
wind,
m/s
gust,
m/s
humid.,
%
clouds,
%
prec.,
mm/h
press.,
hPa
HPBL,
m
7 may, fri
fri700:00+8ssw4148288 0.1 1013405
03:00+8ssw41392100 0.3 1013388
06:00+10ssw41382100 0.0 1013467
09:00+15ssw51160100 0.0 10131205
12:00+18ssw61044100 0.1 10122386
15:00+18ssw51147100 0.1 10122361
18:00+15ssw5125491 0.0 10121555
21:00+12ssw41271100 0.1 1013667
8 may, sat
sat800:00+10w4787100 0.6 1014639
03:00+7nw278989 1.3 1017548
06:00+8nw24825 0.0 1019401
09:00+12n22512 0.0 1019994
12:00+16e22340 0.0 10181568
15:00+17ese34300 0.0 10171946
18:00+15se37475 0.0 1016292
21:00+12se2970100 0.0 1016269
9 may, sun
sun900:00+11sse31082100 0.0 1016275
03:00+9sse31088100 0.0 1015255
06:00+13sse41372100 0.0 1015562
09:00+17sse6115022 0.0 10141515
12:00+20s61038100 0.0 10132485
15:00+20ssw4945100 0.0 10142387
18:00+15wsw31167100 0.1 1015573
21:00+11wnw2590100 0.1 1017302
10 may, mon
mon1000:00+9nw2685100 0.1 1018298
03:00+8nw4792100 2.1 1019548
06:00+6nw3792100 3.9 1022553
09:00+7nnw3585100 7.0 1024742
12:00+7nw4580100 0.3 1025904
15:00+10nnw266055 0.4 10261362
18:00+11nnw13585 0.0 102668
21:00+6w22705 0.0 102816
11 may, tue
tue1100:00+5w227152 0.0 102918
03:00+4wsw227488 0.0 103032
06:00+9wsw376367 0.0 1030244
09:00+12wsw4955100 0.0 1030651
12:00+16wsw575164 0.0 10291185
15:00+18w585065 0.0 10271616
18:00+16wsw4964100 0.0 1027730
21:00+12wsw31280100 0.0 1027325